COSMOS 1275 DEB, 12772

Orbit data source: Space-Track

COSMOS 1275 DEB, 12772 is space debris in LEO originally from a launch on Thu, 04 Jun 1981 UTC launched from the Plesetsk Missile And Space Complex (PKMTR). Debris objects in space refer to the collection of defunct objects orbiting the Earth. Examples of debris include non-operational satellites, rocket bodies, and fragments generated from explosions, collisions, or faulty payload assembly.

Loading next visibility...
Identifier
12772, 1981-053DR
Orbit
LEO
Country
Flag of CISCIS
Related business
Manufacturer
Unknown
Mission
Spacecraft
Bus & Motor
Unknown
Mass
Unknown
Launch date (UTC)
1981-06-04 (45 years ago)
Launch vehicle
Unknown
Launch site
Plesetsk Missile And Space Complex (PKMTR)
Object type
Payload
Rocket body
Debris
Shape & HBR
Unknown shape, 0.1 m
Radar Cross Section
Small (<0.1 m²)

Expand to show TLE details & history
Last TLE update: 18 hours ago

TLE from 18 hours ago
0 COSMOS 1275 DEB
1 12772U 81053DR  26035.22526236  .00003926  00000-0  18405-2 0  9990
2 12772  82.9251 306.6273 0040289 293.0641  66.6294 14.19542638259960
Epoch: 2026-02-04T05:24Z
TLE epoch observation values (Epoch: 2026-02-04T05:24:22.667Z)
Latitude
-0.00008°
Longitude
91.13795°
Altitude
818.443 km
Speed
7.45 km/s
True Right ascension
20h 26m 30s
True Declination
0° 00' 00"
Sunlit
Object was in daylight at epoch
Visualization orbit readout
Latitude
Unknown
Longitude
Unknown
Altitude
Unknown
Speed
Unknown
Apparent Right ascension
Unknown
Apparent Declination
Unknown
Sunlit
N/A
Visualization observer readout
Local Sidereal Time
01:40:26
Azimuth
Unknown
Elevation
Unknown
Doppler factor
Unknown
Orbital elements
Apogee altitude
853.005 km
Perigee altitude
794.971 km
Semi-major axis
7,202.125 km
Eccentricity
0.00403
Inclination
82.9251°
RAAN
306.6273°
Arg. of periapsis
293.0641°
True anomaly
67.05405°
Mean anomaly
66.6294°
Eccentric anomaly
66.84164°
Mean motion
3.55101 °/min
Orbital period
101.38 mins
BSTAR
0.0018405
Loading maneuver chart data...
Computing Atmospheric mass density...

Documentation

Showing up to 5 results
|